FW2888 Weather Reports


Display with metric or nautical units.
time (UTC)temp
F
wind
direction
speed
MPH
gust
MPH
rain 1hr
in
rain 24hr
in
rain mn
in
humidity
%
barometer
mb
20260507205301 58 179 2.0 6.0 0.00 0.05 0.05 71 1002.3
20260507204301 58 161 1.0 6.0 0.00 0.05 0.05 71 1002.4
20260507203802 58 256 1.0 8.0 0.00 0.05 0.05 71 1002.2
20260507203301 59 149 2.0 8.0 0.00 0.05 0.05 71 1002.4
20260507202801 59 100 2.0 7.0 0.00 0.05 0.05 73 1002.3
20260507202300 58 235 2.0 7.0 0.00 0.05 0.05 71 1002.4
20260507201802 58 80 2.0 8.0 0.00 0.05 0.05 70 1002.4
20260507201259 58 259 2.0 8.0 0.00 0.05 0.05 71 1002.5
20260507200800 56 162 1.0 9.0 0.00 0.05 0.05 71 1002.4
20260507195800 56 128 1.0 6.0 0.00 0.05 0.05 71 1002.4
20260507194254 57 117 1.0 4.0 0.00 0.05 0.05 70 1002.8
20260507193754 57 110 1.0 4.0 0.00 0.05 0.05 66 1003.0
20260507192757 57 68 2.0 6.0 0.01 0.05 0.05 65 1002.7
20260507192255 57 135 1.0 4.0 0.01 0.05 0.05 70 1002.5
20260507191755 57 196 1.0 4.0 0.01 0.05 0.05 68 1002.6
20260507190255 58 149 1.0 4.0 0.01 0.05 0.05 67 1003.1
20260507185256 57 16 0.0 2.0 0.01 0.05 0.05 77 1003.3
20260507184755 55 181 0.0 2.0 0.01 0.05 0.05 76 1003.3
20260507184254 54 81 0.0 2.0 0.01 0.05 0.05 78 1003.4
20260507183756 54 81 0.0 2.0 0.01 0.05 0.05 77 1003.3
20260507183256 55 174 0.0 2.0 0.00 0.05 0.04 73 1003.8
20260507182255 56 174 0.0 1.0 0.00 0.05 0.04 64 1003.9
20260507181755 56 196 0.0 4.0 0.00 0.05 0.04 62 1003.9
20260507181254 57 195 0.0 4.0 0.00 0.05 0.04 63 1003.7
20260507180254 57 136 0.0 2.0 0.00 0.05 0.04 67 1003.7
20260507175252 56 103 1.0 3.0 0.00 0.05 0.04 60 1004.1
20260507174752 57 243 1.0 4.0 0.00 0.05 0.04 62 1004.0
20260507174250 57 275 0.0 4.0 0.00 0.05 0.04 59 1003.8
20260507173248 56 224 0.0 3.0 0.00 0.05 0.04 61 1003.9
20260507172750 56 255 1.0 6.0 0.00 0.05 0.04 62 1004.1
20260507172249 56 300 0.0 6.0 0.00 0.05 0.04 61 1004.0
20260507171749 56 56 0.0 2.0 0.00 0.05 0.04 67 1004.3
20260507171250 56 313 1.0 4.0 0.00 0.05 0.04 68 1004.3
20260507170748 56 278 1.0 4.0 0.00 0.05 0.04 65 1004.2
20260507165748 56 214 0.0 2.0 0.00 0.05 0.04 67 1004.2
20260507165248 56 282 0.0 1.0 0.00 0.05 0.04 71 1004.5
20260507164249 55 282 0.0 1.0 0.00 0.05 0.04 72 1004.8
20260507163748 55 282 0.0 1.0 0.00 0.05 0.04 67 1005.2
20260507163247 55 282 0.0 1.0 0.00 0.05 0.04 67 1005.1
20260507162743 55 289 0.0 4.0 0.00 0.05 0.04 65 1004.9
20260507161744 56 300 1.0 3.0 0.00 0.05 0.04 65 1005.0
20260507160743 56 48 1.0 9.0 0.00 0.05 0.04 67 1004.7
20260507160239 56 317 0.0 9.0 0.00 0.05 0.04 69 1004.9
20260507155738 56 330 0.0 2.0 0.00 0.05 0.04 70 1005.2
20260507155240 56 298 0.0 2.0 0.00 0.05 0.04 70 1005.1
20260507154738 57 278 0.0 4.0 0.00 0.05 0.04 69 1005.1
20260507154239 57 341 1.0 4.0 0.00 0.05 0.04 67 1005.1
20260507153738 56 329 1.0 4.0 0.00 0.05 0.04 69 1005.1
20260507152739 57 291 0.0 3.0 0.00 0.05 0.04 64 1005.0
20260507152239 57 43 0.0 3.0 0.00 0.05 0.04 69 1005.2
20260507151736 57 307 1.0 4.0 0.00 0.05 0.04 67 1005.1
20260507151235 57 0 1.0 4.0 0.00 0.05 0.04 66 1005.1
20260507150735 57 194 1.0 3.0 0.00 0.05 0.04 65 1005.1
20260507150236 57 70 1.0 5.0 0.00 0.05 0.04 70 1004.9
20260507145734 57 350 1.0 5.0 0.00 0.06 0.04 67 1004.8
20260507144734 56 295 1.0 5.0 0.00 0.07 0.04 71 1005.3
20260507144235 56 336 1.0 6.0 0.00 0.07 0.04 73 1005.5
20260507143735 56 314 1.0 6.0 0.00 0.07 0.04 70 1005.6
20260507143231 56 290 1.0 5.0 0.00 0.07 0.04 70 1005.7
20260507142731 57 305 2.0 8.0 0.00 0.08 0.04 72 1005.5
20260507142230 57 10 2.0 9.0 0.00 0.10 0.04 72 1005.6
20260507141730 57 18 2.0 9.0 0.00 0.10 0.04 71 1005.7
20260507141230 56 0 1.0 5.0 0.00 0.10 0.04 71 1005.5
20260507140731 56 45 1.0 4.0 0.00 0.10 0.04 72 1005.7
20260507140230 56 132 1.0 8.0 0.00 0.10 0.04 73 1005.8
20260507135731 56 33 2.0 8.0 0.00 0.10 0.04 72 1005.8
20260507135230 56 10 2.0 5.0 0.00 0.11 0.04 71 1005.8
20260507134732 57 345 2.0 8.0 0.00 0.11 0.04 72 1005.9
20260507133729 57 297 2.0 5.0 0.00 0.11 0.04 72 1005.7
20260507133231 57 42 2.0 9.0 0.00 0.11 0.04 73 1005.5
20260507132231 57 102 1.0 6.0 0.00 0.11 0.04 73 1005.5
20260507131730 57 332 2.0 6.0 0.00 0.12 0.04 75 1005.5
20260507130229 56 88 2.0 9.0 0.00 0.12 0.04 77 1005.5
20260507125729 56 343 1.0 5.0 0.00 0.12 0.04 77 1005.6
20260507125230 57 338 1.0 2.0 0.00 0.12 0.04 80 1005.6
20260507123227 57 87 1.0 4.0 0.00 0.12 0.04 81 1005.3
20260507122729 57 281 1.0 3.0 0.00 0.12 0.04 82 1005.4
20260507122224 56 328 1.0 3.0 0.00 0.12 0.04 82 1005.4
20260507121725 56 276 1.0 4.0 0.00 0.12 0.04 83 1005.2
20260507121222 56 291 1.0 4.0 0.00 0.12 0.04 82 1005.1
20260507120220 56 330 0.0 3.0 0.00 0.12 0.04 83 1004.7
20260507115218 56 252 1.0 4.0 0.00 0.12 0.04 85 1004.9
20260507114718 55 341 1.0 4.0 0.00 0.12 0.04 84 1005.0
20260507113715 55 232 0.0 4.0 0.00 0.12 0.04 85 1005.0
20260507113215 55 346 0.0 4.0 0.00 0.12 0.04 85 1005.0
20260507112209 55 254 1.0 3.0 0.00 0.12 0.04 85 1004.6
20260507111707 55 347 1.0 3.0 0.00 0.12 0.04 85 1004.8
20260507111203 55 318 1.0 3.0 0.00 0.12 0.04 85 1004.7
20260507110703 55 320 1.0 3.0 0.00 0.12 0.04 85 1004.8
20260507110201 55 0 1.0 5.0 0.00 0.12 0.04 86 1004.9
20260507105700 55 301 1.0 5.0 0.00 0.12 0.04 86 1004.8
20260507105158 55 299 0.0 2.0 0.00 0.12 0.04 87 1004.7
20260507104659 55 10 0.0 2.0 0.00 0.12 0.04 87 1004.7
20260507104159 54 309 0.0 2.0 0.00 0.12 0.04 87 1004.6
20260507103656 54 299 0.0 2.0 0.00 0.12 0.04 87 1004.7
20260507103149 54 320 0.0 1.0 0.00 0.12 0.04 87 1004.5
20260507102649 54 320 0.0 5.0 0.00 0.12 0.04 87 1004.5
20260507102150 54 322 0.0 5.0 0.00 0.12 0.04 87 1004.2
20260507101651 54 343 0.0 2.0 0.00 0.12 0.04 87 1004.3
20260507101149 54 303 0.0 2.0 0.00 0.12 0.04 88 1004.2
20260507100649 54 14 0.0 2.0 0.00 0.12 0.04 87 1004.2
20260507100149 54 324 0.0 3.0 0.00 0.12 0.04 87 1004.3
20260507095150 54 342 0.0 2.0 0.00 0.12 0.04 87 1004.4
20260507094646 54 320 0.0 2.0 0.00 0.12 0.04 87 1004.3
20260507094145 54 329 0.0 1.0 0.00 0.12 0.04 88 1004.3
20260507093645 54 323 0.0 2.0 0.00 0.12 0.04 87 1004.2
20260507093146 54 324 0.0 3.0 0.00 0.12 0.04 87 1004.2
20260507092646 54 308 0.0 3.0 0.00 0.12 0.04 87 1004.2
20260507092146 54 97 0.0 1.0 0.01 0.12 0.04 88 1004.2
20260507091645 54 97 0.0 1.0 0.01 0.12 0.04 88 1004.4
20260507091145 54 324 0.0 3.0 0.01 0.12 0.04 88 1004.1
20260507090145 54 314 0.0 3.0 0.01 0.12 0.04 89 1003.8
20260507085145 54 320 0.0 1.0 0.01 0.12 0.04 89 1003.7
20260507084144 54 307 0.0 2.0 0.01 0.12 0.04 89 1003.9
20260507083647 54 302 0.0 2.0 0.01 0.12 0.04 88 1003.9
20260507083145 55 277 0.0 2.0 0.01 0.12 0.04 88 1003.9
20260507082646 55 277 0.0 2.0 0.01 0.12 0.04 88 1004.0
20260507082145 55 278 0.0 2.0 0.00 0.11 0.03 87 1004.2
20260507081645 55 353 0.0 3.0 0.00 0.11 0.03 86 1004.5
20260507080145 56 145 2.0 8.0 0.00 0.11 0.03 85 1003.6
20260507075647 56 293 2.0 8.0 0.00 0.11 0.03 87 1003.6
20260507075146 56 297 2.0 8.0 0.00 0.11 0.03 88 1003.6
20260507074647 56 0 1.0 4.0 0.00 0.11 0.03 89 1003.5
20260507074146 56 342 1.0 4.0 0.00 0.11 0.03 89 1003.5
20260507073642 56 342 0.0 4.0 0.00 0.11 0.03 89 1003.5
20260507073142 56 226 1.0 4.0 0.00 0.11 0.03 89 1003.3
20260507072639 56 222 1.0 4.0 0.00 0.11 0.03 90 1003.1
20260507072139 56 0 1.0 4.0 0.00 0.11 0.03 90 1003.2
20260507071638 56 319 1.0 4.0 0.00 0.11 0.03 90 1003.3
20260507071138 56 318 1.0 3.0 0.00 0.11 0.03 89 1003.4
20260507070633 56 355 1.0 3.0 0.00 0.11 0.03 89 1003.3
20260507070136 56 335 1.0 6.0 0.00 0.11 0.03 89 1003.5
20260507065632 56 333 1.0 6.0 0.00 0.11 0.03 90 1003.3
20260507064632 57 304 1.0 5.0 0.01 0.11 0.03 90 1003.2
20260507064132 57 74 2.0 4.0 0.01 0.11 0.03 90 1003.4
20260507063126 57 0 2.0 5.0 0.01 0.11 0.03 91 1003.7
20260507061627 58 320 2.0 6.0 0.02 0.11 0.03 91 1003.1
20260507061126 58 0 1.0 4.0 0.02 0.11 0.03 91 1003.0
20260507060625 58 339 1.0 3.0 0.02 0.11 0.03 90 1002.6
20260507060124 58 16 1.0 3.0 0.02 0.11 0.03 90 1002.1
20260507055623 58 330 0.0 3.0 0.01 0.10 0.03 90 1002.1
20260507055026 58 279 0.0 2.0 0.01 0.10 0.02 90 1001.9
20260507054527 58 170 1.0 5.0 0.01 0.10 0.02 90 1002.0
20260507054027 58 229 1.0 5.0 0.02 0.10 0.02 89 1002.1
20260507053528 58 84 1.0 3.0 0.02 0.10 0.02 89 1002.3
20260507053025 59 325 1.0 3.0 0.02 0.10 0.02 89 1002.9
20260507052525 59 301 1.0 6.0 0.02 0.10 0.02 89 1003.2
20260507051523 60 0 1.0 5.0 0.01 0.09 0.01 88 1003.4
20260507051023 60 88 1.0 8.0 0.01 0.09 0.01 88 1003.4
20260507050020 61 272 2.0 4.0 0.01 0.09 0.01 88 1003.3
20260507045020 63 305 1.0 5.0 0.01 0.09 0.01 88 1003.1
20260507044521 63 56 2.0 6.0 0.01 0.09 0.01 88 1003.0
20260507044020 64 79 2.0 6.0 0.00 0.08 0.00 88 1002.9
20260507043520 64 60 1.0 5.0 0.00 0.08 0.00 89 1003.2
20260507043016 65 343 0.0 2.0 0.00 0.08 0.00 89 1003.0
20260507042515 65 214 0.0 2.0 0.00 0.08 0.00 89 1002.7
20260507042016 65 214 0.0 2.0 0.00 0.08 0.00 88 1002.6
20260507041516 65 214 0.0 1.0 0.00 0.08 0.00 88 1002.3
20260507041014 65 214 0.0 1.0 0.00 0.08 0.00 87 1002.4
20260507040515 65 214 0.0 1.0 0.00 0.08 0.00 87 1002.7
20260507040015 65 214 0.0 0.0 0.00 0.08 0.00 87 1002.6
20260507035514 65 214 0.0 0.0 0.00 0.08 0.08 87 1002.5
20260507035016 65 214 0.0 0.0 0.00 0.08 0.08 87 1002.4
20260507034511 65 214 0.0 0.0 0.00 0.08 0.08 86 1002.4
20260507034010 65 214 0.0 0.0 0.00 0.08 0.08 86 1002.3
20260507033510 65 214 0.0 0.0 0.00 0.08 0.08 85 1002.3
20260507033011 65 214 0.0 0.0 0.00 0.08 0.08 85 1002.1
20260507032511 66 214 0.0 1.0 0.00 0.08 0.08 85 1002.0
20260507032010 66 214 0.0 1.0 0.00 0.08 0.08 84 1002.0
20260507031510 66 214 0.0 1.0 0.00 0.08 0.08 84 1002.3
20260507031010 66 214 0.0 0.0 0.00 0.08 0.08 84 1002.6
20260507030511 66 214 0.0 0.0 0.00 0.08 0.08 84 1002.5
20260507030007 66 214 0.0 0.0 0.00 0.08 0.08 84 1002.3
20260507025506 66 214 0.0 0.0 0.00 0.08 0.08 85 1002.1
20260507025006 66 214 0.0 0.0 0.00 0.08 0.08 85 1002.2
20260507024506 65 214 0.0 0.0 0.00 0.08 0.08 85 1002.2
20260507024003 65 214 0.0 0.0 0.00 0.08 0.08 85 1002.1
20260507023504 65 214 0.0 0.0 0.00 0.08 0.08 85 1001.8
20260507023004 65 214 0.0 0.0 0.00 0.08 0.08 85 1001.6
20260507022504 65 214 0.0 0.0 0.00 0.08 0.08 85 1001.4
20260507022004 65 214 0.0 0.0 0.00 0.08 0.08 84 1001.5
20260507021504 66 214 0.0 0.0 0.00 0.08 0.08 83 1001.5
20260507021007 66 214 0.0 0.0 0.00 0.08 0.08 84 1001.6
20260507020504 65 214 0.0 0.0 0.00 0.08 0.08 85 1001.8
20260507015501 65 214 0.0 1.0 0.00 0.08 0.08 85 1001.9
20260507015001 65 214 0.0 1.0 0.00 0.08 0.08 85 1001.9
20260507014459 65 276 0.0 0.0 0.00 0.08 0.08 84 1002.0
20260507014002 65 276 0.0 0.0 0.00 0.08 0.08 83 1002.1
20260507013459 66 276 0.0 1.0 0.00 0.08 0.08 83 1002.2
20260507013000 66 276 0.0 1.0 0.00 0.08 0.08 83 1002.3
20260507012500 66 276 0.0 1.0 0.00 0.08 0.08 83 1002.1
20260507012001 66 276 0.0 0.0 0.00 0.08 0.08 83 1002.3
20260507011000 66 276 0.0 0.0 0.00 0.08 0.08 82 1002.0
20260507010501 67 276 0.0 1.0 0.00 0.08 0.08 81 1002.0
20260507005457 67 353 0.0 2.0 0.00 0.08 0.08 81 1002.0
20260507005000 67 103 0.0 1.0 0.00 0.08 0.08 81 1001.9
20260507004457 67 160 0.0 1.0 0.00 0.08 0.08 80 1001.7
20260507003952 68 170 0.0 2.0 0.00 0.08 0.08 80 1001.8
20260507003449 68 270 0.0 2.0 0.00 0.08 0.08 80 1001.7
20260507002953 68 272 0.0 4.0 0.00 0.08 0.08 80 1001.8
20260507002447 68 212 0.0 4.0 0.00 0.08 0.08 80 1001.8
20260507001948 68 277 0.0 4.0 0.00 0.08 0.08 79 1001.8
20260507001446 68 310 0.0 4.0 0.00 0.08 0.08 80 1002.0
20260507000946 68 142 0.0 4.0 0.00 0.08 0.08 79 1001.8
20260506235940 69 222 0.0 6.0 0.00 0.08 0.08 79 1001.8
20260506235441 69 263 0.0 6.0 0.00 0.08 0.08 79 1001.7
20260506234939 69 285 0.0 2.0 0.00 0.08 0.08 78 1001.6
20260506234438 69 285 0.0 2.0 0.00 0.08 0.08 78 1001.5
20260506233938 69 234 0.0 2.0 0.00 0.08 0.08 78 1001.3
20260506233436 70 170 0.0 2.0 0.00 0.08 0.08 78 1001.2
20260506232434 70 73 1.0 6.0 0.00 0.08 0.08 77 1001.3
20260506231935 70 246 1.0 6.0 0.00 0.08 0.08 77 1001.1
20260506231432 70 212 1.0 4.0 0.00 0.08 0.08 77 1001.2
20260506230428 70 308 1.0 5.0 0.00 0.08 0.08 76 1001.2
20260506225927 70 217 1.0 7.0 0.00 0.08 0.08 76 1001.1
20260506225428 70 239 1.0 7.0 0.00 0.08 0.08 75 1001.1
20260506224922 71 260 1.0 8.0 0.00 0.08 0.08 75 1001.2
20260506224422 71 49 1.0 8.0 0.00 0.08 0.08 75 1001.2
20260506223921 71 16 1.0 6.0 0.00 0.08 0.08 75 1001.1
20260506223422 71 188 1.0 6.0 0.00 0.08 0.08 74 1001.2
20260506222917 71 309 2.0 7.0 0.00 0.08 0.08 74 1001.2
20260506222418 71 282 2.0 7.0 0.00 0.08 0.08 74 1001.2
20260506221918 71 135 1.0 7.0 0.00 0.08 0.08 73 1001.3
20260506215917 72 217 2.0 9.0 0.00 0.08 0.08 72 1001.2
20260506215415 72 254 1.0 5.0 0.00 0.08 0.08 73 1001.0
20260506214916 72 348 1.0 5.0 0.00 0.08 0.08 74 1001.0
20260506214416 72 264 2.0 8.0 0.00 0.08 0.08 72 1001.1
20260506213914 72 72 2.0 8.0 0.00 0.08 0.08 73 1001.0
20260506213415 72 10 2.0 6.0 0.00 0.08 0.08 73 1001.2
20260506212913 72 176 2.0 6.0 0.00 0.08 0.08 72 1001.2
20260506212413 72 332 2.0 8.0 0.00 0.08 0.08 73 1001.0
20260506211913 72 56 2.0 10.0 0.00 0.08 0.08 72 1001.0
20260506211410 72 289 2.0 10.0 0.00 0.08 0.08 73 1001.1
20260506210912 71 273 1.0 6.0 0.00 0.08 0.08 74 1001.0
20260506210411 71 164 1.0 6.0 0.00 0.08 0.08 74 1001.0
20260506205907 71 66 2.0 9.0 0.00 0.08 0.08 74 1001.0
20260506205409 71 186 3.0 9.0 0.00 0.08 0.08 73 1001.1